Location: Bremen
(53.0796°N, 8.8241°E)
Time: 12:14:28
(UTC+01:00)

ISS - Pass Details

Date: 13 January 2018
Orbit: 402 x 407 km, 51.6° (Epoch: 19 January)

Event Time Altitude Azimuth Distance (km) Brightness Sun altitude
Exits shadow 05:33:55 17° 142° (SE) 1,124 -1.2 -25.9°
Drops below altitude 10° 05:34:51 10° 134° (SE) 1,464 -0.4 -25.7°
Sets 05:37:00 0° 126° (SE) 2,323 0.9 -25.4°
